This demonstration page uses our WeatherBlox Daily Observations layout. Learn more.

38.80484, -77.04692

Hourly Observations for April 26, 2019

Temp ( °F °C ) Dew Point ( °F °C ) Humidity (%) Winds ( mph kmh ) Pressure ( in mb ) Visibility ( mi km ) Precip ( " mm )
12:52 am 00:52 Cloudy with Light Rain 63 17.2 48 8.9 58 58 ENE 3 6 29.82 1010 10 16.0934 0 0.0254
1:52 am 01:52 Cloudy with Light Rain 61 16.1 52 11.1 72 72 ESE 5 7 29.81 1009 10 16.0934 0.01 0.254
2:52 am 02:52 Cloudy 60 15.6 52 11.1 75 75 E 3 6 29.76 1008 10 16.0934 0 0.0254
3:52 am 03:52 Cloudy with Light Rain 60 15.6 52 11.1 75 75 E 5 7 29.73 1007 10 16.0934 0 0.0254
4:52 am 04:52 Cloudy 59 15 53 11.7 81 81 SSE 6 9 29.7 1006 10 16.0934 0 0.0254
5:52 am 05:52 Cloudy 59 15 53 11.7 81 81 WNW 3 6 29.7 1006 10 16.0934 0 0
6:52 am 06:52 Cloudy 60 15.6 54 12.2 80 80 E 7 11 29.67 1005 10 16.0934 0 0
7:52 am 07:52 Cloudy 60 15.6 55 12.8 84 84 VRB 3 6 29.65 1004 10 16.0934 0 0
8:42 am 08:42 Cloudy 62 16.7 57 13.9 84 84 SE 7 11 29.63 1003 10 16.0934 0 0
8:52 am 08:52 Cloudy 63 17.2 57 13.9 81 81 S 7 11 29.63 1003 10 16.0934 0 0
9:52 am 09:52 Cloudy 65 18.3 59 15 81 81 SSW 7 11 29.58 1002 10 16.0934 0 0
10:52 am 10:52 Cloudy with Light Rain 68 20 61 16.1 78 78 S 8 13 29.53 1000 10 16.0934 0 0.0254
11:52 am 11:52 Mostly Cloudy 73 22.8 62 16.7 69 69 S 17 28 29.49 999 10 16.0934 0 0.0254
12:52 pm 12:52 Mostly Cloudy 73 22.8 60 15.6 64 64 S 16 26 29.44 997 10 16.0934 0 0
1:52 pm 13:52 Mostly Cloudy 74 23.3 60 15.6 62 62 S 16 26 29.39 995 10 16.0934 0 0
2:21 pm 14:21 Cloudy 73 22.8 60 15.6 64 64 S 13 20 29.36 994 10 16.0934 0 0
2:25 pm 14:25 Cloudy with Light Thunderstorms 73 22.8 60 15.6 64 64 SSW 12 19 29.36 994 7 11.26538 0 0.0254
2:29 pm 14:29 Cloudy with Heavy Thunderstorms 72 22.2 61 16.1 68 68 SW 9 15 29.37 995 2 3.21868 0.02 0.508
2:36 pm 14:36 Cloudy with Light Thunderstorms 70 21.1 61 16.1 73 73 W 18 30 29.37 995 0.25 0.402335 0.05 1.27
2:44 pm 14:44 Cloudy with Heavy Thunderstorms 68 20 61 16.1 78 78 WSW 23 37 29.36 994 1 1.60934 0.41 10.414
2:50 pm 14:50 Cloudy with Heavy Thunderstorms 66 19 61 16 83 83 WSW 15 24 29.36 994 5 8.0467 0.51 12.954
2:52 pm 14:52 Cloudy with Light Thunderstorms 68 20 61 16.1 78 78 WSW 13 20 29.36 994 7 11.26538 0.51 12.954
2:58 pm 14:58 Cloudy with Light Rain 69 20.6 62 16.7 78 78 W 14 22 29.36 994 7 11.26538 0 0.0254
3:05 pm 15:05 Cloudy with Nearby Thunderstorms 69 20.6 62 16.7 78 78 W 14 22 29.37 995 10 16.0934 0.01 0.254
3:08 pm 15:08 Cloudy with Nearby Thunderstorms 69 20.6 62 16.7 78 78 WNW 16 26 29.37 995 10 16.0934 0.01 0.254
3:14 pm 15:14 Windy with Storms Likely 69 20.6 61 16.1 76 76 W 20 31 29.38 995 6 9.65604 0.01 0.254
3:35 pm 15:35 Cloudy with Nearby Thunderstorms 65 18.3 57 13.9 76 76 W 12 19 29.37 995 6 9.65604 0.06 1.524
3:37 pm 15:37 Cloudy with Nearby Thunderstorms 66 18.9 57 13.9 73 73 W 8 13 29.37 995 10 16.0934 0.06 1.524
3:52 pm 15:52 Cloudy with Light Rain 65 18.3 57 13.9 76 76 W 12 19 29.38 995 10 16.0934 0.06 1.524
4:52 pm 16:52 Cloudy 66 18.9 58 14.4 75 75 WSW 10 17 29.39 995 10 16.0934 0 0.0254
5:22 pm 17:22 Cloudy with Light Rain 66 18.9 58 14.4 75 75 WSW 8 13 29.41 996 10 16.0934 0 0.0254
5:52 pm 17:52 Cloudy with Light Rain 65 18.3 58 14.4 78 78 W 12 19 29.42 996 10 16.0934 0.01 0.254
6:52 pm 18:52 Cloudy 65 18.3 52 11.1 63 63 WNW 14 22 29.43 997 10 16.0934 0 0.0254
7:52 pm 19:52 Cloudy 64 17.8 47 8.3 54 54 NW 14 22 29.48 998 10 16.0934 0 0
8:52 pm 20:52 Mostly Cloudy 60 15.6 42 5.6 52 52 NW 15 24 29.57 1002 10 16.0934 0 0
9:52 pm 21:52 Mostly Cloudy 59 15 41 5 51 51 NW 17 28 29.6 1002 10 16.0934 0 0
10:52 pm 22:52 Mostly Cloudy 59 15 41 5 51 51 NW 14 22 29.6 1002 10 16.0934 0 0
11:52 pm 23:52 Mostly Cloudy 58 14.4 40 4.4 51 51 WNW 16 26 29.62 1003 10 16.0934 0 0

Powered by AerisWeather